Погода в Камышеватской

Россия / Краснодарский край     46°24′42″N   37°57′19″E
темп.,
°C
ветер,
м/с
пор.,
м/с
влажн.,
%
обл.,
%
осадки,
мм/ч
давл.,
гПа
погр.,
м
10 августа, ср
ср1000:00+26всв48310 0.0 1012113
03:00+24всв410350 0.0 1012154
06:00+24всв5123828 0.0 1012260
09:00+30в812261 0.0 10111497
12:00+34в912210 0.0 10102550
15:00+36в810190 0.0 10083053
18:00+35в8101910 0.0 10073138
21:00+31в613253 0.0 1007306
11 августа, чт
чт1100:00+28всв61331100 0.0 1007332
03:00+28в51134100 0.0 1007336
06:00+25в5113993 0.0 1008287
09:00+29в71035100 0.0 1009938
12:00+31в6930100 0.0 10081386
15:00+34св6925100 0.0 10072285
18:00+33св7102698 0.0 1006865
21:00+25всв495425 0.7 1007174
12 августа, пт
пт1200:00+22вюв37785 3.6 1008154
03:00+22вюв488115 4.8 1009166
06:00+22в478249 0.3 1010204
09:00+27вюв46585 1.0 1011593
12:00+31вюв34425 0.0 10111465
15:00+33ссз343915 0.0 10101803
18:00+33св56373 0.1 10091196
21:00+28в59572 3.4 1010131
13 августа, сб
сб1300:00+26в47672 0.1 1009119
03:00+25в45630 0.1 100983
06:00+22в511710 0.5 1010222
09:00+29вюв710440 0.6 1011693
12:00+34вюв811240 0.0 10101896
15:00+37вюв79190 0.0 10082602
18:00+35всв79230 0.0 10071532
21:00+31всв816260 0.0 1007569
14 августа, вс
вс1400:00+29в818260 0.0 1006562
03:00+27в613330 0.0 1006347
06:00+25в815371 0.0 1007433
09:00+31вюв813285 0.0 10071033
12:00+35вюв792189 0.0 10061707
15:00+36юв46212 0.0 10042229
18:00+35сз452784 0.0 1004891
21:00+30з474359 0.0 1004153